San Luis Obispo, CA

9:33 AM PST on December 08, 2016 (GMT -0800)
San Luis Obispo County-McChesney

Weather History for KSBP - October, 2013

Change the Weather History Date:

Sunday, October 6, 2013

  Actual Average Record
Temperature  
Mean Temperature 70 °F -  
Max Temperature 91 °F 78 °F 100 °F (1971)
Min Temperature 48 °F 51 °F 42 °F (1962)
Cooling Degree Days 4    
Growing Degree Days 20 (Base 50)    
Moisture  
Dew Point 27 °F    
Average Humidity 27    
Maximum Humidity 50    
Minimum Humidity 6    
Precipitation  
Precipitation 0.00 in - - ()
Sea Level Pressure  
Sea Level Pressure 30.04 in    
Wind  
Wind Speed 2 mph (WNW)    
Max Wind Speed 13 mph    
Max Gust Speed -    
Visibility 10 miles    
Events      
Averages and records for this station are not official NWS values.
T = Trace of Precipitation, MM = Missing Value Source: NWS Daily Summary

Daily Weather History Graph

Daily Weather History Graph

Search for Another Location

Airport or City:

Trip Planner

Search our weather history database for the weather conditions in past years. The results will help you decide how hot, cold, wet, or windy it might be!

Date:

Astronomy

Oct. 06, 2013 Rise Set
Actual Time 7:01 AM PDT 6:38 PM PDT
Civil Twilight 6:36 AM PDT 7:04 PM PDT
Nautical Twilight 6:06 AM PDT 7:33 PM PDT
Astronomical Twilight 5:37 AM PDT 8:03 PM PDT
Moon 8:46 AM PDT (10/6) 7:47 PM PDT (10/6)
Length of Visible Light 12h 28m
Length of Day
11h 37m
Waxing Crescent, 4% of the Moon is Illuminated
Oct 6
Waxing Crescent
Oct 11
First Quarter
Oct 18
Full
Oct 26
Last Quarter
Nov 3
New

Hourly Weather History & Observations

Time (PDT) Temp. Dew Point Humidity Pressure Visibility Wind Dir Wind Speed Gust Speed Precip Events Conditions
12:56 AM 54.0 °F 30.9 °F 41% 30.08 in 10.0 mi Calm Calm - N/A   Clear
1:56 AM 52.0 °F 30.9 °F 45% 30.08 in 10.0 mi Calm Calm - N/A   Clear
2:56 AM 52.0 °F 32.0 °F 47% 30.06 in 10.0 mi Calm Calm - N/A   Clear
3:56 AM 52.0 °F 30.9 °F 45% 30.05 in 10.0 mi SE 3.5 mph - N/A   Clear
4:56 AM 51.1 °F 30.9 °F 46% 30.06 in 10.0 mi Calm Calm - N/A   Clear
5:56 AM 48.9 °F 30.0 °F 48% 30.07 in 10.0 mi Calm Calm - N/A   Clear
6:56 AM 48.9 °F 30.9 °F 50% 30.07 in 10.0 mi Calm Calm - N/A   Clear
7:56 AM 52.0 °F 30.9 °F 45% 30.09 in 10.0 mi Calm Calm - N/A   Clear
8:56 AM 62.1 °F 33.1 °F 34% 30.09 in 10.0 mi Calm Calm - N/A   Clear
9:56 AM 75.9 °F 32.0 °F 20% 30.09 in 10.0 mi Calm Calm - N/A   Clear
10:56 AM 82.9 °F 27.0 °F 13% 30.07 in 10.0 mi Calm Calm - N/A   Clear
11:56 AM 91.0 °F 18.0 °F 7% 30.05 in 10.0 mi Variable 3.5 mph - N/A   Clear
12:56 PM 91.0 °F 12.9 °F 6% 30.04 in 10.0 mi SW 6.9 mph - N/A   Clear
1:56 PM 91.0 °F 16.0 °F 6% 30.01 in 10.0 mi WSW 12.7 mph - N/A   Clear
2:56 PM 89.1 °F 21.9 °F 9% 30.02 in 10.0 mi WNW 9.2 mph - N/A   Clear
3:56 PM 87.1 °F 19.9 °F 8% 30.01 in 10.0 mi NW 12.7 mph - N/A   Clear
4:56 PM 82.9 °F 24.1 °F 12% 30.01 in 10.0 mi NW 10.4 mph - N/A   Clear
5:56 PM 77.0 °F 26.1 °F 15% 30.01 in 10.0 mi NW 10.4 mph - N/A   Scattered Clouds
6:56 PM 70.0 °F 27.0 °F 20% 30.01 in 10.0 mi NNW 9.2 mph - N/A   Clear
7:56 PM 69.1 °F 27.0 °F 21% 30.01 in 10.0 mi Calm Calm - N/A   Clear
8:29 PM 64.4 °F 28.4 °F 26% 30.01 in 10.0 mi North - - N/A   Clear
8:37 PM 64.4 °F 28.4 °F 26% 30.01 in 10.0 mi Calm Calm - N/A   Clear
8:56 PM 64.0 °F 27.0 °F 25% 30.01 in 10.0 mi Calm Calm - N/A   Clear
9:56 PM 61.0 °F 27.0 °F 27% 30.01 in 10.0 mi Calm Calm - N/A   Clear
10:56 PM 57.9 °F 28.0 °F 32% 30.01 in 10.0 mi Calm Calm - N/A   Clear
11:56 PM 55.0 °F 28.0 °F 35% 29.99 in 10.0 mi Calm Calm - N/A   Clear